This is the latest recevied weather packets stored in our database for station/object N4ASP-13. If no packets are shown the sender has not sent any weather packets the latest 10 day(s).
| Time | Temp. | Humidity | Pressure | Rain* | Wind** | Luminosity | Snow |
|---|---|---|---|---|---|---|---|
| 1788633593 | 25° C | 69% | 1014 hPa | 0 mm | - | 397 W/m² | - |
| 1788633531 | 25° C | 70% | 1013.9 hPa | 0 mm | - | 392 W/m² | - |
| 1788633471 | 25° C | 70% | 1014 hPa | 0 mm | - | 381 W/m² | - |
| 1788633413 | 25° C | 70% | 1014 hPa | 0 mm | - | 376 W/m² | - |
| 1788633352 | 25° C | 71% | 1014.1 hPa | 0 mm | - | 371 W/m² | - |
| 1788633286 | 25° C | 71% | 1014.2 hPa | 0 mm | - | 366 W/m² | - |
| 1788633249 | 25° C | 70% | 1014.3 hPa | 0 mm | - | 360 W/m² | - |
| 1788633167 | 25° C | 70% | 1014.5 hPa | 0 mm | - | 346 W/m² | - |
| 1788633105 | 25° C | 70% | 1014.5 hPa | 0 mm | - | 338 W/m² | - |
| 1788633046 | 25° C | 70% | 1014.5 hPa | 0 mm | - | 329 W/m² | - |
| 1788632977 | 25° C | 69% | 1014.6 hPa | 0 mm | - | 316 W/m² | - |
| 1788632915 | 25° C | 69% | 1014.4 hPa | 0 mm | - | 306 W/m² | - |
| 1788632856 | 25° C | 69% | 1014.2 hPa | 0 mm | - | 276 W/m² | - |
| 1788632796 | 25° C | 68% | 1014.2 hPa | 0 mm | - | 260 W/m² | - |
| 1788632736 | 25° C | 68% | 1014.4 hPa | 0 mm | - | 244 W/m² | - |
| 1788632674 | 25° C | 69% | 1014.6 hPa | 0 mm | - | 227 W/m² | - |
| 1788632613 | 25° C | 68% | 1014.7 hPa | 0 mm | - | 213 W/m² | - |
| 1788632553 | 25° C | 69% | 1014.8 hPa | 0 mm | - | 200 W/m² | - |
| 1788632494 | 25° C | 68% | 1014.8 hPa | 0 mm | - | 188 W/m² | - |
| 1788632434 | 25° C | 68% | 1014.8 hPa | 0 mm | - | 185 W/m² | - |
| 1788632375 | 25.56° C | 67% | 1014.6 hPa | 0 mm | - | 185 W/m² | - |
| 1788632314 | 25.56° C | 66% | 1014.4 hPa | 0 mm | - | 186 W/m² | - |
| 1788632253 | 25.56° C | 67% | 1014.4 hPa | 0 mm | - | 190 W/m² | - |
| 1788632194 | 25.56° C | 67% | 1014.4 hPa | 0 mm | - | 192 W/m² | - |
| 1788632135 | 25.56° C | 66% | 1014.4 hPa | 0 mm | - | 193 W/m² | - |
* Rain latest hour (hover to see other rain measurements)
** Current wind speed in m/s (hover to see current wind gust speed)